CW1509 Weather Reports


time (UTC)temp
C
wind
direction
speed
KPH
gust
KPH
rain 1hr
cm
rain 24hr
cm
rain mn
cm
humidity
%
barometer
mb
20260906103912 17 65 0.0 0.0 0.00 0.00 0.00 91 1018.5
20260906103431 17 65 0.0 0.0 0.00 0.00 0.00 91 1018.5
20260906102929 17 65 0.0 0.0 0.00 0.00 0.00 91 1018.4
20260906102449 17 65 0.0 0.0 0.00 0.00 0.00 91 1018.3
20260906101947 17 65 0.0 0.0 0.00 0.00 0.00 91 1018.3
20260906101427 17 65 0.0 0.0 0.00 0.00 0.00 91 1018.2
20260906100924 17 65 0.0 0.0 0.00 0.00 0.00 91 1018.1
20260906100423 17 65 0.0 0.0 0.00 0.00 0.00 91 1018.3
20260906095920 17 65 0.0 0.0 0.00 0.00 0.00 91 1018.2
20260906095418 17 65 0.0 0.0 0.00 0.00 0.00 91 1018.2
20260906094919 17 65 0.0 0.0 0.00 0.00 0.00 91 1018.0
20260906094417 17 65 0.0 0.0 0.00 0.00 0.00 91 1018.1
20260906093936 17 65 0.0 0.0 0.00 0.00 0.00 91 1018.0
20260906093415 17 65 0.0 0.0 0.00 0.00 0.00 90 1018.0
20260906092914 18 65 0.0 0.0 0.00 0.00 0.00 90 1017.9
20260906092413 18 65 0.0 0.0 0.00 0.00 0.00 90 1018.0
20260906091913 18 65 0.0 0.0 0.00 0.00 0.00 90 1018.0
20260906091413 18 65 0.0 0.0 0.00 0.00 0.00 90 1017.9
20260906090912 18 65 0.0 0.0 0.00 0.00 0.00 91 1018.0
20260906090410 18 65 0.0 0.0 0.00 0.00 0.00 91 1017.9
20260906085930 18 65 0.0 0.0 0.00 0.00 0.00 91 1017.9
20260906085424 18 65 0.0 0.0 0.00 0.00 0.00 91 1017.7
20260906084924 18 65 0.0 0.0 0.00 0.00 0.00 91 1017.7
20260906084422 18 65 0.0 0.0 0.00 0.00 0.00 91 1017.7
20260906083921 18 65 0.0 0.0 0.00 0.00 0.00 91 1017.7
20260906083441 18 65 0.0 0.0 0.00 0.00 0.00 91 1017.7
20260906082919 18 65 0.0 0.0 0.00 0.00 0.00 91 1017.6
20260906082419 18 65 0.0 0.0 0.00 0.00 0.00 91 1017.5
20260906081939 18 65 0.0 0.0 0.00 0.00 0.00 91 1017.6
20260906081437 18 65 0.0 3.2 0.00 0.00 0.00 91 1017.6
20260906080917 18 69 0.0 3.2 0.00 0.00 0.00 90 1017.6
20260906080437 18 69 1.6 3.2 0.00 0.00 0.00 90 1017.5
20260906075915 18 55 0.0 1.6 0.00 0.00 0.00 90 1017.5
20260906075414 18 57 0.0 4.8 0.00 0.00 0.00 90 1017.5
20260906074934 18 26 1.6 4.8 0.00 0.00 0.00 90 1017.5
20260906074412 18 62 0.0 4.8 0.00 0.00 0.00 90 1017.6
20260906073911 18 42 3.2 4.8 0.00 0.00 0.00 90 1017.5
20260906073410 18 76 0.0 4.8 0.00 0.00 0.00 90 1017.4
20260906072909 19 36 0.0 4.8 0.00 0.00 0.00 90 1017.4
20260906072428 19 41 1.6 3.2 0.00 0.00 0.00 89 1017.3
20260906071926 19 69 0.0 3.2 0.00 0.00 0.00 89 1017.6
20260906071425 19 50 0.0 4.8 0.00 0.00 0.00 89 1017.5
20260906070924 19 50 0.0 4.8 0.00 0.00 0.00 89 1017.5
20260906070444 19 42 0.0 4.8 0.00 0.00 0.00 89 1017.4
20260906065941 19 58 1.6 6.4 0.00 0.00 0.00 89 1017.4
20260906065420 19 49 1.6 6.4 0.00 0.00 0.00 89 1017.6
20260906064918 20 44 1.6 4.8 0.00 0.00 0.00 90 1017.7
20260906064438 20 44 1.6 6.4 0.00 0.00 0.00 90 1017.7
20260906063917 20 55 3.2 6.4 0.00 0.00 0.00 90 1017.6
20260906063437 20 74 1.6 6.4 0.00 0.00 0.00 90 1017.7
20260906062914 20 49 1.6 3.2 0.00 0.00 0.00 90 1017.7
20260906062414 20 57 1.6 6.4 0.00 0.00 0.00 90 1017.7
20260906061913 20 57 1.6 6.4 0.00 0.00 0.00 90 1017.7
20260906061413 20 53 0.0 3.2 0.00 0.00 0.00 90 1017.6
20260906060913 20 61 0.0 3.2 0.00 0.00 0.00 90 1017.6
20260906060412 20 50 0.0 6.4 0.00 0.00 0.00 90 1017.4
20260906055912 20 43 3.2 8.0 0.00 0.00 0.00 89 1017.5
20260906055410 20 62 1.6 8.0 0.00 0.00 0.00 90 1017.4
20260906054929 20 27 3.2 6.4 0.00 0.00 0.00 90 1017.3
20260906054427 20 47 1.6 4.8 0.00 0.00 0.00 90 1017.3
20260906053926 21 31 0.0 4.8 0.00 0.00 0.00 90 1017.1
20260906053425 21 64 1.6 6.4 0.00 0.00 0.00 90 1017.1
20260906052925 21 76 3.2 8.0 0.00 0.00 0.00 90 1017.0
20260906052423 21 43 3.2 8.0 0.00 0.00 0.00 89 1017.0
20260906051922 21 52 1.6 8.0 0.00 0.00 0.00 90 1017.0
20260906051421 21 59 1.6 8.0 0.00 0.00 0.00 89 1017.0
20260906050919 21 77 1.6 8.0 0.00 0.00 0.00 89 1016.9
20260906050417 21 360 1.6 4.8 0.00 0.00 0.00 89 1017.0
20260906045916 21 55 0.0 3.2 0.00 0.00 0.00 89 1016.9
20260906045414 21 61 0.0 4.8 0.00 0.00 0.00 89 1017.0
20260906044930 21 55 1.6 4.8 0.00 0.00 0.00 88 1017.0
20260906044427 21 42 1.6 4.8 0.00 0.00 0.00 88 1016.9
20260906043927 21 44 0.0 8.0 0.00 0.00 0.00 88 1016.9
20260906043426 22 57 3.2 8.0 0.00 0.00 0.00 88 1017.0
20260906042946 22 25 0.0 3.2 0.00 0.00 0.00 88 1016.8
20260906042423 22 45 1.6 4.8 0.00 0.00 0.00 87 1016.9
20260906041942 22 74 1.6 4.8 0.00 0.00 0.00 87 1016.9
20260906041421 22 57 0.0 1.6 0.00 0.00 0.00 87 1016.9
20260906040921 22 40 0.0 3.2 0.00 0.00 0.00 87 1016.8
20260906040419 22 38 1.6 4.8 0.00 0.03 0.00 87 1016.9
20260906035918 22 50 0.0 4.8 0.00 0.03 0.00 87 1016.9
20260906035419 22 52 1.6 4.8 0.00 0.03 0.00 87 1016.9
20260906034918 22 9 0.0 4.8 0.00 0.03 0.00 87 1016.9
20260906034417 22 9 1.6 4.8 0.00 0.03 0.00 87 1016.8
20260906033936 22 20 0.0 0.0 0.00 0.03 0.00 87 1016.8
20260906033424 22 20 0.0 1.6 0.00 0.03 0.00 87 1016.8
20260906032923 22 84 0.0 1.6 0.00 0.03 0.00 87 1016.7
20260906032404 22 5 0.0 3.2 0.00 0.03 0.00 87 1016.7
20260906031744 22 5 1.6 3.2 0.00 0.03 0.00 87 1016.6
20260906031001 22 48 0.0 3.2 0.00 0.03 0.00 87 1016.7
20260906030528 22 49 0.0 3.2 0.00 0.03 0.00 86 1016.7
20260906025913 22 5 0.0 0.0 0.00 0.03 0.00 86 1016.6
20260906025714 22 15 0.0 0.0 0.00 0.03 0.00 86 1016.6
20260906025158 22 66 0.0 0.0 0.00 0.03 0.00 86 1016.7
20260906024706 22 61 0.0 0.0 0.00 0.03 0.00 86 1016.6
20260906023919 22 61 0.0 0.0 0.00 0.03 0.00 86 1016.6
20260906023504 22 61 0.0 0.0 0.00 0.03 0.00 85 1016.5
20260906022915 22 61 0.0 4.8 0.00 0.03 0.00 85 1016.5
20260906022522 22 48 1.6 4.8 0.00 0.03 0.00 85 1016.5
20260906021920 22 82 1.6 4.8 0.00 0.03 0.00 85 1016.4
20260906021419 22 80 1.6 4.8 0.00 0.03 0.00 85 1016.4
20260906021004 22 44 1.6 6.4 0.00 0.03 0.00 85 1016.3
20260906020413 22 54 1.6 6.4 0.00 0.03 0.00 84 1016.3
20260906015933 22 26 1.6 6.4 0.00 0.03 0.00 84 1016.3
20260906015410 22 30 3.2 6.4 0.00 0.03 0.00 84 1016.3
20260906014930 22 355 0.0 6.4 0.00 0.03 0.00 84 1016.2
20260906014548 22 67 1.6 6.4 0.00 0.03 0.00 84 1016.2
20260906013925 22 10 1.6 9.7 0.00 0.03 0.00 84 1016.2
20260906013424 22 5 1.6 6.4 0.00 0.03 0.00 84 1016.1
20260906012435 22 5 1.6 8.0 0.00 0.03 0.00 84 1016.1
20260906011913 22 60 1.6 8.0 0.00 0.03 0.00 84 1015.8
20260906011412 22 54 1.6 4.8 0.00 0.03 0.00 84 1015.8
20260906010922 22 40 0.0 4.8 0.00 0.03 0.00 84 1015.6
20260906010431 22 27 1.6 8.0 0.00 0.03 0.00 84 1015.7
20260906005909 22 32 4.8 9.7 0.00 0.03 0.00 84 1015.7
20260906005512 23 72 4.8 9.7 0.00 0.03 0.00 84 1015.7
20260906004941 23 53 3.2 6.4 0.00 0.03 0.00 84 1015.6
20260906004419 23 57 1.6 6.4 0.00 0.03 0.00 84 1015.6
20260906004005 23 18 0.0 6.4 0.00 0.03 0.00 84 1015.7
20260906003424 23 78 3.2 14.5 0.00 0.03 0.00 84 1015.6
20260906002923 23 30 6.4 14.5 0.00 0.03 0.00 84 1015.5
20260906002530 23 75 3.2 9.7 0.00 0.03 0.00 85 1015.5
20260906001916 23 44 0.0 8.0 0.00 0.03 0.00 85 1015.5
20260906001435 23 59 3.2 8.0 0.00 0.03 0.00 84 1015.2
20260906000935 23 34 0.0 6.4 0.00 0.03 0.00 84 1015.2
20260906000449 23 69 1.6 8.0 0.00 0.03 0.00 84 1015.2
20260905235948 23 58 1.6 8.0 0.00 0.03 0.00 84 1015.2
20260905235425 23 39 0.0 9.7 0.00 0.03 0.00 83 1015.1
20260905234917 23 12 3.2 9.7 0.00 0.03 0.00 83 1015.1
20260905234610 23 11 3.2 11.3 0.00 0.03 0.00 83 1015.0
20260905234015 24 16 4.8 16.1 0.00 0.03 0.00 82 1015.2
20260905233410 24 5 4.8 9.7 0.00 0.03 0.00 82 1015.2
20260905233124 24 5 1.6 6.4 0.00 0.03 0.00 82 1015.1
20260905232421 24 61 3.2 8.0 0.00 0.03 0.00 82 1015.0
20260905231921 25 33 3.2 8.0 0.00 0.03 0.00 82 1015.1
20260905231409 25 5 4.8 14.5 0.00 0.03 0.00 81 1015.0
20260905230935 25 25 6.4 14.5 0.00 0.03 0.00 81 1014.9
20260905230518 25 53 3.2 9.7 0.00 0.03 0.00 82 1014.8
20260905225928 25 9 4.8 12.9 0.00 0.03 0.00 81 1014.6
20260905225429 25 18 3.2 12.9 0.00 0.03 0.00 81 1014.6
20260905224928 26 59 4.8 12.9 0.00 0.03 0.00 80 1014.6
20260905224430 26 360 3.2 8.0 0.00 0.03 0.00 80 1014.5
20260905223416 26 37 3.2 11.3 0.00 0.03 0.00 79 1014.4
20260905222911 26 40 3.2 9.7 0.00 0.03 0.00 79 1014.3
20260905222431 26 49 3.2 12.9 0.00 0.03 0.00 79 1014.2
20260905222044 26 34 4.8 12.9 0.00 0.03 0.00 78 1014.1
20260905221425 26 19 4.8 9.7 0.00 0.03 0.00 77 1014.0
20260905220909 26 5 1.6 4.8 0.00 0.03 0.00 78 1014.0
20260905215425 27 360 1.6 9.7 0.00 0.03 0.00 76 1013.9
20260905215118 27 69 3.2 9.7 0.00 0.03 0.00 76 1013.8
20260905214436 27 17 1.6 6.4 0.00 0.03 0.00 75 1013.8
20260905214043 27 30 1.6 8.0 0.00 0.03 0.00 76 1013.8
20260905213432 27 360 1.6 8.0 0.00 0.03 0.00 76 1013.8
20260905212918 27 5 0.0 6.4 0.00 0.03 0.00 76 1013.8
20260905212718 27 5 1.6 6.4 0.00 0.03 0.00 75 1013.8
20260905212023 27 355 1.6 14.5 0.00 0.03 0.00 75 1013.8
20260905211415 27 38 4.8 9.7 0.00 0.03 0.00 74 1013.8
20260905211317 27 47 6.4 9.7 0.00 0.03 0.00 74 1013.8
20260905210512 27 13 1.6 4.8 0.00 0.03 0.00 75 1013.7
20260905205911 27 41 1.6 9.7 0.00 0.03 0.00 76 1013.7
20260905205516 27 5 4.8 9.7 0.00 0.03 0.00 75 1013.6
20260905203928 28 317 3.2 6.4 0.00 0.03 0.00 74 1013.7
20260905203418 28 12 4.8 12.9 0.00 0.03 0.00 74 1013.7
20260905203112 28 67 3.2 12.9 0.00 0.03 0.00 73 1013.7
20260905202430 28 28 1.6 6.4 0.00 0.03 0.00 75 1013.8
20260905201920 28 323 1.6 4.8 0.00 0.03 0.00 75 1013.7
20260905200911 28 355 1.6 14.5 0.00 0.03 0.00 74 1013.9
20260905200507 28 9 1.6 14.5 0.00 0.03 0.00 74 1013.9
20260905195501 28 13 3.2 6.4 0.00 0.03 0.00 74 1013.9
20260905195007 28 355 1.6 3.2 0.00 0.03 0.00 75 1013.8
20260905194605 28 333 1.6 8.0 0.00 0.03 0.00 74 1013.9
20260905193924 28 55 4.8 9.7 0.00 0.03 0.00 73 1013.9
20260905193638 28 60 3.2 9.7 0.00 0.03 0.00 73 1014.0
20260905192955 28 24 3.2 9.7 0.00 0.03 0.00 72 1014.0
20260905192429 28 331 1.6 9.7 0.00 0.03 0.00 73 1013.9
20260905191521 29 72 1.6 6.4 0.00 0.03 0.00 72 1014.0
20260905190920 29 355 3.2 8.0 0.00 0.03 0.00 72 1014.0
20260905190429 28 24 1.6 4.8 0.00 0.03 0.00 71 1014.0
20260905190157 28 323 1.6 6.4 0.00 0.03 0.00 72 1013.9
20260905185634 28 5 3.2 6.4 0.00 0.03 0.00 71 1014.0
20260905185147 28 350 1.6 6.4 0.00 0.03 0.00 72 1014.0
20260905184650 28 355 0.0 6.4 0.00 0.03 0.00 72 1014.1
20260905183919 28 341 0.0 4.8 0.00 0.03 0.00 73 1014.1
20260905183359 28 34 3.2 4.8 0.00 0.03 0.00 73 1014.1
20260905182754 28 355 0.0 6.4 0.00 0.03 0.00 74 1014.1
20260905181924 28 331 1.6 9.7 0.00 0.03 0.00 74 1014.1
20260905181103 28 344 3.2 8.0 0.00 0.03 0.00 74 1014.1
20260905180612 28 339 1.6 8.0 0.00 0.18 0.00 75 1014.2
20260905180151 28 11 0.0 3.2 0.00 0.18 0.00 74 1014.3
20260905175640 28 9 0.0 3.2 0.00 0.18 0.00 75 1014.3
20260905174920 28 290 1.6 4.8 0.00 0.18 0.00 74 1014.3
20260905174429 28 80 1.6 8.0 0.00 0.18 0.00 75 1014.4
20260905173944 28 57 1.6 8.0 0.00 0.18 0.00 75 1014.4
20260905172939 28 327 0.0 6.4 0.00 0.18 0.00 74 1014.4
20260905172506 28 29 0.0 6.4 0.00 0.18 0.00 76 1014.6
20260905171947 28 9 0.0 4.8 0.00 0.18 0.00 75 1014.6
20260905171422 28 28 0.0 6.4 0.00 0.18 0.00 75 1014.5
20260905170649 28 5 0.0 3.2 0.00 0.18 0.00 75 1014.6
20260905165913 28 340 0.0 3.2 0.00 0.25 0.00 76 1014.7
20260905165515 28 34 1.6 3.2 0.00 0.25 0.00 76 1014.7
20260905164925 28 190 0.0 1.6 0.00 0.25 0.00 77 1014.7
20260905164416 28 190 0.0 6.4 0.00 0.25 0.00 77 1014.6
20260905163924 27 190 3.2 6.4 0.00 0.25 0.00 78 1014.7
20260905163431 27 186 0.0 3.2 0.00 0.25 0.00 79 1014.6
20260905162918 27 92 0.0 4.8 0.00 0.25 0.00 79 1014.6
20260905161946 27 240 1.6 4.8 0.00 0.25 0.00 82 1014.6
20260905161524 26 201 1.6 4.8 0.00 0.25 0.00 83 1014.5
20260905160913 26 61 0.0 6.4 0.00 0.25 0.00 84 1014.6
20260905160505 26 277 1.6 6.4 0.00 0.25 0.00 84 1014.5
20260905155938 26 101 0.0 3.2 0.00 0.25 0.00 85 1014.6
20260905155759 26 54 1.6 3.2 0.00 0.25 0.00 85 1014.6
20260905154933 25 196 0.0 0.0 0.00 0.25 0.00 86 1014.6
20260905154422 25 196 0.0 3.2 0.00 0.25 0.00 86 1014.6
20260905153917 25 196 0.0 6.4 0.00 0.25 0.00 86 1014.6
20260905153646 25 259 1.6 6.4 0.00 0.25 0.00 86 1014.7
20260905152932 25 283 0.0 3.2 0.00 0.25 0.00 86 1014.8
20260905152433 25 184 0.0 4.8 0.00 0.25 0.00 87 1014.7
20260905150914 24 29 0.0 6.4 0.00 0.25 0.00 87 1014.6
20260905150731 24 29 1.6 6.4 0.00 0.25 0.00 87 1014.5
20260905150053 24 28 1.6 6.4 0.00 0.25 0.00 87 1014.6
20260905145415 24 42 0.0 1.6 0.00 0.25 0.00 88 1014.6
20260905145030 24 61 0.0 4.8 0.00 0.25 0.00 88 1014.5
20260905144420 23 44 1.6 4.8 0.00 0.25 0.00 88 1014.6
20260905143914 23 173 0.0 3.2 0.00 0.25 0.00 88 1014.6
20260905143411 23 70 0.0 1.6 0.00 0.25 0.00 89 1014.6
20260905142921 23 61 0.0 6.4 0.00 0.25 0.00 89 1014.8
20260905142625 23 61 0.0 6.4 0.00 0.25 0.00 89 1014.8
20260905141944 23 17 0.0 3.2 0.00 0.25 0.00 90 1014.7
20260905141434 23 17 1.6 6.4 0.00 0.25 0.00 89 1014.7
20260905140931 23 9 1.6 6.4 0.00 0.25 0.00 89 1014.7
20260905140451 23 60 1.6 6.4 0.00 0.25 0.00 90 1014.6
20260905135926 23 61 1.6 6.4 0.00 0.25 0.00 90 1014.6
20260905135446 23 59 0.0 3.2 0.00 0.25 0.00 90 1014.6
20260905134925 23 47 1.6 3.2 0.00 0.25 0.00 90 1014.5
20260905134426 23 33 0.0 4.8 0.00 0.25 0.00 90 1014.3
20260905133927 23 80 0.0 4.8 0.00 0.25 0.00 90 1014.3
20260905133427 23 58 1.6 4.8 0.00 0.25 0.00 91 1014.3
20260905132926 23 76 0.0 4.8 0.00 0.25 0.00 91 1014.3
20260905132426 22 39 0.0 4.8 0.00 0.25 0.00 91 1014.3
20260905131920 22 41 0.0 6.4 0.00 0.25 0.00 91 1014.3
20260905131420 22 53 3.2 6.4 0.00 0.25 0.00 91 1014.3
20260905130939 22 63 3.2 8.0 0.00 0.25 0.00 90 1014.3
20260905130437 22 40 1.6 8.0 0.00 0.25 0.00 91 1014.2
20260905125914 22 14 1.6 4.8 0.00 0.25 0.00 91 1014.3
20260905125434 22 81 0.0 6.4 0.00 0.25 0.00 91 1014.3
20260905124932 22 11 3.2 6.4 0.00 0.25 0.00 91 1014.3
20260905124411 22 42 3.2 6.4 0.00 0.25 0.00 91 1014.3
20260905123930 22 32 0.0 0.0 0.00 0.25 0.00 92 1014.3
20260905123446 22 61 0.0 0.0 0.00 0.25 0.00 93 1014.1
20260905122925 22 67 0.0 0.0 0.00 0.25 0.00 93 1014.0
20260905122423 22 11 0.0 0.0 0.00 0.25 0.00 93 1014.0
20260905121924 22 49 0.0 0.0 0.00 0.25 0.00 93 1013.8
20260905121423 22 49 0.0 0.0 0.00 0.25 0.00 93 1013.8
20260905120942 22 49 0.0 0.0 0.00 0.25 0.00 93 1013.7
20260905120420 22 49 0.0 0.0 0.00 0.25 0.00 93 1013.7
20260905115940 22 49 0.0 0.0 0.00 0.25 0.00 93 1013.5
20260905115420 22 49 0.0 0.0 0.00 0.25 0.00 93 1013.5
20260905114919 22 49 0.0 0.0 0.00 0.25 0.00 93 1013.5
20260905114419 22 49 0.0 0.0 0.00 0.25 0.00 93 1013.5
20260905113917 22 49 0.0 0.0 0.00 0.25 0.00 93 1013.5
20260905113416 22 49 0.0 0.0 0.00 0.25 0.00 93 1013.5
20260905112916 22 49 0.0 3.2 0.00 0.25 0.00 93 1013.5
20260905112415 22 49 0.0 4.8 0.00 0.25 0.00 93 1013.5
20260905111914 22 64 3.2 4.8 0.00 0.25 0.00 93 1013.5
20260905111413 22 184 0.0 0.0 0.00 0.25 0.00 92 1013.3
20260905110913 22 184 0.0 0.0 0.00 0.25 0.00 92 1013.2
20260905110412 22 184 0.0 0.0 0.00 0.25 0.00 92 1013.1
20260905105911 22 184 0.0 0.0 0.00 0.25 0.00 92 1013.1
20260905105412 22 184 0.0 0.0 0.00 0.25 0.00 92 1013.1
20260905104911 22 184 0.0 0.0 0.00 0.25 0.00 92 1013.0